Hourly Weather Golaya Pristan

Today, 18 May, Tuesday

Time Temperature Precipitation Wind Pressure Humidity
00:00 +14°C° 0 mm 4 mps 754 mmHg 91%
01:00 +14°C° 0 mm 4 mps 754 mmHg 92%
02:00 +13°C° 0 mm 4 mps 753 mmHg 94%
03:00 +13°C° 0 mm 4 mps 753 mmHg 94%
04:00 +13°C° 0 mm 4 mps 753 mmHg 93%
05:00 +13°C° 0 mm 4 mps 753 mmHg 93%
06:00 +15°C° 0 mm 4 mps 753 mmHg 86%
07:00 +17°C° 0 mm 5 mps 753 mmHg 80%
08:00 +19°C° 0 mm 5 mps 753 mmHg 73%
09:00 +19°C° 0.7 mm 6 mps 753 mmHg 73%
10:00 +19°C° 0.7 mm 6 mps 753 mmHg 73%
11:00 +19°C° 0.7 mm 6 mps 753 mmHg 74%
12:00 +18°C° 0.1 mm 7 mps 753 mmHg 71%
13:00 +20°C° 0.1 mm 8 mps 753 mmHg 69%
14:00 +19°C° 0.1 mm 10 mps 753 mmHg 67%
15:00 +19°C° 0 mm 9 mps 753 mmHg 67%
16:00 +18°C° 0 mm 9 mps 753 mmHg 68%
17:00 +18°C° 0 mm 8 mps 753 mmHg 69%
18:00 +17°C° 0 mm 7 mps 753 mmHg 73%
19:00 +16°C° 0 mm 7 mps 753 mmHg 77%
20:00 +15°C° 0 mm 6 mps 753 mmHg 81%
21:00 +15°C° 0.1 mm 5 mps 753 mmHg 82%
22:00 +14°C° 0.1 mm 4 mps 753 mmHg 83%
23:00 +14°C° 0.1 mm 3 mps 753 mmHg 83%

Tomorrow, 19 May, Wednesday

Time Temperature Precipitation Wind Pressure Humidity
00:00 +14°C° 0 mm 3 mps 753 mmHg 83%
01:00 +13°C° 0 mm 4 mps 753 mmHg 82%
02:00 +13°C° 0 mm 4 mps 753 mmHg 81%
03:00 +12°C° 0 mm 4 mps 753 mmHg 83%
04:00 +12°C° 0 mm 4 mps 753 mmHg 84%
05:00 +12°C° 0 mm 4 mps 753 mmHg 85%
06:00 +13°C° 0.1 mm 5 mps 754 mmHg 82%
07:00 +14°C° 0.1 mm 6 mps 754 mmHg 79%
08:00 +15°C° 0.1 mm 7 mps 754 mmHg 75%
09:00 +15°C° 0.3 mm 7 mps 755 mmHg 78%
10:00 +14°C° 0.3 mm 7 mps 755 mmHg 81%
11:00 +13°C° 0.3 mm 8 mps 755 mmHg 83%
12:00 +14°C° 0.2 mm 7 mps 755 mmHg 83%
13:00 +14°C° 0.2 mm 7 mps 756 mmHg 83%
14:00 +14°C° 0.2 mm 7 mps 756 mmHg 83%
15:00 +15°C° 0.1 mm 7 mps 756 mmHg 78%
16:00 +16°C° 0.1 mm 7 mps 756 mmHg 73%
17:00 +17°C° 0.1 mm 7 mps 757 mmHg 68%
18:00 +16°C° 0.1 mm 6 mps 757 mmHg 74%
19:00 +15°C° 0.1 mm 4 mps 757 mmHg 79%
20:00 +13°C° 0.1 mm 3 mps 758 mmHg 84%
21:00 +13°C° 0 mm 3 mps 758 mmHg 86%
22:00 +13°C° 0 mm 3 mps 758 mmHg 87%
23:00 +13°C° 0 mm 2 mps 758 mmHg 88%

Day after tomorrow, 20 May, Thursday

Time Temperature Precipitation Wind Pressure Humidity
00:00 +13°C° 0 mm 2 mps 758 mmHg 88%
01:00 +12°C° 0 mm 3 mps 758 mmHg 89%
02:00 +12°C° 0 mm 3 mps 757 mmHg 89%
03:00 +13°C° 0 mm 2 mps 757 mmHg 88%
04:00 +13°C° 0 mm 2 mps 757 mmHg 88%
05:00 +14°C° 0 mm 1 mps 757 mmHg 87%
06:00 +14°C° 0 mm 3 mps 758 mmHg 79%
07:00 +17°C° 0 mm 4 mps 758 mmHg 71%
08:00 +19°C° 0 mm 5 mps 758 mmHg 63%
09:00 +19°C° 0 mm 5 mps 758 mmHg 62%
10:00 +19°C° 0 mm 5 mps 758 mmHg 61%
11:00 +19°C° 0 mm 5 mps 758 mmHg 61%
12:00 +20°C° 0 mm 4 mps 758 mmHg 58%
13:00 +20°C° 0 mm 4 mps 757 mmHg 54%
14:00 +21°C° 0 mm 3 mps 757 mmHg 51%
15:00 +21°C° 0 mm 3 mps 757 mmHg 50%
16:00 +21°C° 0 mm 3 mps 757 mmHg 48%
17:00 +21°C° 0 mm 4 mps 757 mmHg 47%
18:00 +19°C° 0.1 mm 4 mps 757 mmHg 55%
19:00 +18°C° 0.1 mm 4 mps 757 mmHg 64%
20:00 +15°C° 0.1 mm 4 mps 758 mmHg 73%
21:00 +16°C° 0.2 mm 3 mps 758 mmHg 75%
22:00 +15°C° 0.2 mm 2 mps 757 mmHg 78%
23:00 +15°C° 0.2 mm 1 mps 757 mmHg 80%

21 May, Friday

Time Temperature Precipitation Wind Pressure Humidity
00:00 +15°C° 0 mm 1 mps 757 mmHg 81%
01:00 +15°C° 0 mm 1 mps 757 mmHg 81%
02:00 +15°C° 0 mm 1 mps 757 mmHg 81%
03:00 +15°C° 0 mm 1 mps 757 mmHg 81%
04:00 +14°C° 0 mm 1 mps 757 mmHg 82%
05:00 +14°C° 0 mm 1 mps 758 mmHg 82%
06:00 +15°C° 0 mm 2 mps 758 mmHg 77%
07:00 +17°C° 0 mm 2 mps 758 mmHg 73%
08:00 +18°C° 0 mm 2 mps 758 mmHg 68%
09:00 +19°C° 0 mm 2 mps 758 mmHg 63%
10:00 +20°C° 0 mm 2 mps 758 mmHg 58%
11:00 +23°C° 0 mm 2 mps 758 mmHg 52%
12:00 +23°C° 0 mm 2 mps 758 mmHg 51%
13:00 +24°C° 0 mm 2 mps 758 mmHg 49%
14:00 +24°C° 0 mm 3 mps 758 mmHg 47%
15:00 +24°C° 0 mm 3 mps 758 mmHg 48%
16:00 +24°C° 0 mm 3 mps 758 mmHg 50%
17:00 +24°C° 0 mm 3 mps 758 mmHg 51%
18:00 +22°C° 0 mm 3 mps 758 mmHg 55%
19:00 +20°C° 0 mm 3 mps 758 mmHg 59%
20:00 +19°C° 0 mm 3 mps 758 mmHg 63%
21:00 +19°C° 0 mm 4 mps 758 mmHg 64%
22:00 +18°C° 0 mm 4 mps 758 mmHg 65%
23:00 +18°C° 0 mm 4 mps 758 mmHg 66%

22 May, Saturday

Time Temperature Precipitation Wind Pressure Humidity
00:00 +16°C° 0 mm 5 mps 758 mmHg 71%
01:00 +16°C° 0 mm 5 mps 758 mmHg 75%
02:00 +15°C° 0 mm 5 mps 758 mmHg 79%
03:00 +15°C° 0 mm 6 mps 758 mmHg 80%
04:00 +15°C° 0 mm 7 mps 757 mmHg 80%
05:00 +15°C° 0 mm 7 mps 757 mmHg 80%
06:00 +16°C° 0 mm 7 mps 757 mmHg 77%
07:00 +17°C° 0 mm 7 mps 757 mmHg 73%
08:00 +18°C° 0 mm 7 mps 758 mmHg 69%
09:00 +21°C° 0 mm 8 mps 757 mmHg 64%
10:00 +23°C° 0 mm 8 mps 757 mmHg 60%
11:00 +24°C° 0 mm 9 mps 757 mmHg 55%
12:00 +26°C° 0 mm 9 mps 757 mmHg 53%
13:00 +27°C° 0 mm 9 mps 757 mmHg 51%
14:00 +27°C° 0 mm 9 mps 756 mmHg 49%
15:00 +27°C° 0 mm 9 mps 756 mmHg 52%
16:00 +26°C° 0 mm 8 mps 756 mmHg 54%
17:00 +26°C° 0 mm 8 mps 756 mmHg 56%
18:00 +24°C° 0 mm 8 mps 756 mmHg 59%
19:00 +23°C° 0 mm 8 mps 757 mmHg 62%
20:00 +21°C° 0 mm 7 mps 757 mmHg 64%
21:00 +21°C° 0.1 mm 7 mps 757 mmHg 67%
22:00 +20°C° 0.1 mm 7 mps 757 mmHg 69%
23:00 +18°C° 0.1 mm 7 mps 757 mmHg 71%

23 May, Sunday

Time Temperature Precipitation Wind Pressure Humidity
00:00 +18°C° 0 mm 7 mps 757 mmHg 73%
01:00 +18°C° 0 mm 7 mps 756 mmHg 74%
02:00 +18°C° 0 mm 7 mps 756 mmHg 75%
03:00 +17°C° 0 mm 7 mps 756 mmHg 78%
04:00 +17°C° 0 mm 7 mps 756 mmHg 80%
05:00 +17°C° 0 mm 6 mps 756 mmHg 82%
06:00 +19°C° 0 mm 6 mps 756 mmHg 77%
07:00 +20°C° 0 mm 7 mps 756 mmHg 72%
08:00 +22°C° 0 mm 7 mps 756 mmHg 68%
09:00 +23°C° 0 mm 6 mps 756 mmHg 63%
10:00 +26°C° 0 mm 5 mps 756 mmHg 59%
11:00 +28°C° 0 mm 5 mps 756 mmHg 54%
12:00 +28°C° 0 mm 5 mps 755 mmHg 53%
13:00 +29°C° 0 mm 5 mps 755 mmHg 51%
14:00 +30°C° 0 mm 6 mps 755 mmHg 50%
15:00 +29°C° 0 mm 5 mps 755 mmHg 52%
16:00 +29°C° 0 mm 5 mps 755 mmHg 53%
17:00 +29°C° 0 mm 5 mps 754 mmHg 55%
18:00 +27°C° 0 mm 5 mps 755 mmHg 60%
19:00 +26°C° 0 mm 4 mps 755 mmHg 66%
20:00 +23°C° 0 mm 4 mps 755 mmHg 71%
21:00 +23°C° 0.1 mm 4 mps 755 mmHg 74%
22:00 +22°C° 0.1 mm 5 mps 754 mmHg 77%
23:00 +21°C° 0.1 mm 5 mps 754 mmHg 81%
Show more